Date String (YYYY-MM-DD hh:mm:ss) UTC,Instrument flags,Ambient pressure (hPa),Sample flow (lpm),Bypass flow (lpm),Sample temperature (°C),Ambient temperature (°C),ASC tube jacket temperature (°C),LED temperature (°C),Box temperature (°C),Sample RH (%),Span deviation,Mass concentration (μg/m³),Mass concentration (μg/m³),Mass concentration (μg/m³)
DateTimeUTC,F1_M11,P_M11,Q1_M11,Q2_M11,T1_M11,T2_M11,T3_M11,T4_M11,T5_M11,U1_M11,ZSPAN_M11,X0_M11,X2_M11,X1_M11
2022-03-31 18:00:00,,0818.4,5.00,0.00,25.3,24.6,00.0,34.2,27.2,06.3,0000.0,0006.77,0002.56,0000.99
2022-03-31 18:01:00,,0818.4,5.00,0.00,25.4,24.6,00.0,34.2,27.2,06.7,0000.0,0007.15,0002.51,0000.98
2022-03-31 18:02:00,,0818.3,5.01,0.00,25.4,24.6,00.0,34.2,27.2,06.6,0000.0,0007.20,0002.47,0000.99
2022-03-31 18:03:00,,0818.4,5.01,0.00,25.4,24.6,00.0,34.2,27.2,06.7,0000.0,0008.07,0002.51,0001.00
2022-03-31 18:04:00,,0818.3,5.00,0.00,25.4,24.6,00.0,34.2,27.3,06.6,0000.0,0008.62,0002.52,0001.02
2022-03-31 18:05:00,,0818.4,4.99,0.00,25.4,24.6,00.0,34.2,27.3,06.7,0000.0,0008.66,0002.55,0001.04
2022-03-31 18:06:00,,0818.4,5.00,0.00,25.4,24.6,00.0,34.2,27.3,06.4,0000.0,0008.59,0002.50,0001.04
2022-03-31 18:07:00,,0818.3,5.01,0.00,25.4,24.6,00.0,34.3,27.2,06.4,0000.0,0008.76,0002.62,0001.05
2022-03-31 18:08:00,,0818.4,5.00,0.00,25.4,24.6,00.0,34.3,27.2,06.1,0000.0,0008.89,0002.72,0001.04
2022-03-31 18:09:00,,0818.4,4.99,0.00,25.4,24.6,00.0,34.3,27.2,06.5,0000.0,0008.93,0002.73,0001.02
2022-03-31 18:10:00,,0818.4,5.00,0.00,25.4,24.6,00.0,34.3,27.2,06.8,0000.0,0008.87,0002.66,0001.00
2022-03-31 18:11:00,,0818.3,5.01,0.00,25.4,24.6,00.0,34.3,27.3,06.8,0000.0,0008.67,0002.67,0000.99
2022-03-31 18:12:00,,0818.3,5.00,0.00,25.4,24.6,00.0,34.3,27.3,06.1,0000.0,0008.46,0002.67,0000.99
2022-03-31 18:13:00,,0818.3,4.99,0.00,25.4,24.7,00.0,34.3,27.3,06.6,0000.0,0008.36,0002.69,0000.99
2022-03-31 18:14:00,,0818.3,5.00,0.00,25.5,24.7,00.0,34.3,27.3,07.1,0000.0,0007.59,0002.68,0000.99
2022-03-31 18:15:00,,0818.3,4.99,0.00,25.5,24.7,00.0,34.3,27.3,06.6,0000.0,0006.59,0002.64,0000.99
2022-03-31 18:16:00,,0818.2,5.02,0.00,25.5,24.7,00.0,34.3,27.4,06.5,0000.0,0006.44,0002.62,0001.00
2022-03-31 18:17:00,,0818.2,5.00,0.00,25.5,24.8,00.0,34.4,27.4,06.6,0000.0,0006.49,0002.65,0001.00
2022-03-31 18:18:00,,0818.2,5.00,0.00,25.6,24.8,00.0,34.4,27.4,06.2,0000.0,0006.15,0002.49,0000.98
2022-03-31 18:19:00,,0818.2,5.00,0.00,25.6,24.8,00.0,34.4,27.4,06.9,0000.0,0006.09,0002.47,0000.98
2022-03-31 18:20:00,,0818.2,4.99,0.00,25.6,24.8,00.0,34.4,27.5,06.4,0000.0,0005.88,0002.44,0000.98
2022-03-31 18:21:00,,0818.1,5.01,0.00,25.6,24.8,00.0,34.4,27.5,06.6,0000.0,0005.91,0002.50,0000.98
2022-03-31 18:22:00,,0818.2,5.00,0.00,25.6,24.8,00.0,34.4,27.4,06.2,0000.0,0005.82,0002.53,0000.98
2022-03-31 18:23:00,,0818.1,5.01,0.00,25.6,24.8,00.0,34.4,27.5,06.3,0000.0,0005.60,0002.50,0000.98
2022-03-31 18:24:00,,0818.1,5.01,0.00,25.6,24.8,00.0,34.5,27.5,06.6,0000.0,0005.99,0002.55,0000.97
2022-03-31 18:25:00,,0818.0,4.98,0.00,25.6,24.8,00.0,34.5,27.5,06.3,0000.0,0006.46,0002.59,0000.96
2022-03-31 18:26:00,,0818.1,5.01,0.00,25.6,24.8,00.0,34.5,27.5,06.5,0000.0,0006.84,0002.68,0000.95
2022-03-31 18:27:00,,0818.1,4.99,0.00,25.6,24.9,00.0,34.5,27.5,06.7,0000.0,0006.91,0002.67,0000.93
2022-03-31 18:28:00,,0818.0,5.00,0.00,25.7,24.9,00.0,34.5,27.5,06.5,0000.0,0006.74,0002.61,0000.91
2022-03-31 18:29:00,,0818.0,5.01,0.00,25.7,24.9,00.0,34.5,27.5,06.7,0000.0,0006.61,0002.59,0000.91
2022-03-31 18:30:00,,0818.1,5.00,0.00,25.7,24.9,00.0,34.5,27.5,06.4,0000.0,0006.55,0002.58,0000.91
2022-03-31 18:31:00,,0818.0,5.00,0.00,25.7,25.0,00.0,34.5,27.5,06.9,0000.0,0006.63,0002.55,0000.90
2022-03-31 18:32:00,,0818.0,5.01,0.00,25.7,25.0,00.0,34.5,27.6,06.6,0000.0,0006.93,0002.55,0000.88
2022-03-31 18:33:00,,0818.1,5.00,0.00,25.7,25.0,00.0,34.6,27.6,06.6,0000.0,0006.88,0002.56,0000.88
2022-03-31 18:34:00,,0818.1,5.00,0.00,25.7,25.0,00.0,34.6,27.6,06.2,0000.0,0006.91,0002.59,0000.90
2022-03-31 18:35:00,,0818.1,5.00,0.00,25.8,25.0,00.0,34.6,27.6,06.0,0000.0,0006.55,0002.59,0000.92
2022-03-31 18:36:00,,0818.0,5.00,0.00,25.8,25.0,00.0,34.6,27.6,06.0,0000.0,0006.17,0002.57,0000.94
2022-03-31 18:37:00,,0818.0,4.99,0.00,25.8,25.0,00.0,34.6,27.6,06.1,0000.0,0005.96,0002.51,0000.94
2022-03-31 18:38:00,,0818.0,4.99,0.00,25.7,25.0,00.0,34.6,27.6,06.6,0000.0,0006.09,0002.58,0000.95
2022-03-31 18:39:00,,0818.0,5.00,0.00,25.8,25.0,00.0,34.6,27.6,06.3,0000.0,0006.42,0002.67,0000.98
2022-03-31 18:40:00,,0818.0,5.02,0.00,25.8,25.0,00.0,34.6,27.6,06.2,0000.0,0006.75,0002.77,0000.99
2022-03-31 18:41:00,,0818.0,4.99,0.00,25.8,25.1,00.0,34.7,27.6,06.3,0000.0,0006.70,0002.75,0000.99
2022-03-31 18:42:00,,0818.0,4.99,0.00,25.8,25.1,00.0,34.7,27.7,06.5,0000.0,0006.65,0002.78,0001.00
2022-03-31 18:43:00,,0818.0,4.99,0.00,25.8,25.1,00.0,34.7,27.7,06.5,0000.0,0006.91,0002.77,0001.01
2022-03-31 18:44:00,,0818.0,5.01,0.00,25.8,25.1,00.0,34.7,27.7,06.7,0000.0,0007.76,0002.74,0001.02
2022-03-31 18:45:00,,0818.0,5.00,0.00,25.8,25.1,00.0,34.7,27.7,06.1,0000.0,0007.69,0002.70,0001.01
2022-03-31 18:46:00,,0818.0,4.99,0.00,25.8,25.1,00.0,34.7,27.7,05.9,0000.0,0007.81,0002.74,0001.00
2022-03-31 18:47:00,,0818.0,4.99,0.00,25.9,25.2,00.0,34.7,27.7,06.3,0000.0,0007.83,0002.76,0000.99
2022-03-31 18:48:00,,0818.0,4.99,0.00,25.9,25.2,00.0,34.7,27.7,06.5,0000.0,0007.92,0002.84,0001.00
2022-03-31 18:49:00,,0818.0,5.00,0.00,25.9,25.2,00.0,34.7,27.8,06.5,0000.0,0007.90,0002.82,0001.01
2022-03-31 18:50:00,,0818.0,4.99,0.00,25.9,25.2,00.0,34.8,27.8,05.9,0000.0,0008.01,0002.76,0000.99
2022-03-31 18:51:00,,0818.0,5.01,0.00,26.0,25.3,00.0,34.8,27.8,05.9,0000.0,0007.87,0002.67,0000.98
2022-03-31 18:52:00,,0818.0,4.99,0.00,26.0,25.3,00.0,34.8,27.9,05.9,0000.0,0007.96,0002.72,0000.99
2022-03-31 18:53:00,,0818.0,5.01,0.00,26.0,25.3,00.0,34.8,27.9,06.2,0000.0,0008.24,0002.76,0001.01
2022-03-31 18:54:00,,0818.0,5.00,0.00,26.0,25.3,00.0,34.8,27.9,06.2,0000.0,0008.45,0002.81,0001.01
2022-03-31 18:55:00,,0817.9,4.99,0.00,26.0,25.3,00.0,34.8,27.9,06.4,0000.0,0007.74,0002.85,0001.00
2022-03-31 18:56:00,,0817.9,5.00,0.00,26.1,25.3,00.0,34.9,27.9,06.3,0000.0,0007.76,0002.83,0001.00
2022-03-31 18:57:00,,0817.9,5.02,0.00,26.1,25.4,00.0,34.9,27.9,06.7,0000.0,0008.10,0002.84,0001.02
2022-03-31 18:58:00,,0817.9,5.00,0.00,26.1,25.4,00.0,34.9,28.0,06.4,0000.0,0008.32,0002.85,0001.04
2022-03-31 18:59:00,,0817.9,4.98,0.00,26.1,25.4,00.0,34.9,28.0,07.0,0000.0,0008.22,0002.80,0001.04
